• In Hungary
  • List of Countries
  • For 7 days
  • Water Temperature
  • Satellite Maps
  • Weather Map
  • News
  • Weather Widgets
  • user-avatar
    Login

    Hourly Weather Eremkovo

    Today, 26 May, Saturday

    Time Temperature Precipitation Wind Pressure Humidity
    00:00 +9°C° 0 mm 1 mps 757 mmHg 72%
    01:00 +9°C° 0 mm 1 mps 757 mmHg 72%
    02:00 +8°C° 0 mm 1 mps 757 mmHg 75%
    03:00 +9°C° 0 mm 1 mps 758 mmHg 73%
    04:00 +9°C° 0 mm 1 mps 758 mmHg 71%
    05:00 +10°C° 0 mm 1 mps 758 mmHg 68%
    06:00 +12°C° 0 mm 1 mps 758 mmHg 62%
    07:00 +15°C° 0 mm 2 mps 758 mmHg 55%
    08:00 +17°C° 0 mm 2 mps 759 mmHg 48%
    09:00 +18°C° 0 mm 2 mps 758 mmHg 45%
    10:00 +19°C° 0 mm 2 mps 758 mmHg 41%
    11:00 +21°C° 0 mm 2 mps 758 mmHg 38%
    12:00 +21°C° 0 mm 2 mps 758 mmHg 38%
    13:00 +23°C° 0 mm 2 mps 757 mmHg 37%
    14:00 +23°C° 0 mm 2 mps 757 mmHg 37%
    15:00 +23°C° 0 mm 2 mps 756 mmHg 39%
    16:00 +23°C° 0 mm 2 mps 756 mmHg 41%
    17:00 +21°C° 0 mm 2 mps 755 mmHg 43%
    18:00 +19°C° 0 mm 2 mps 755 mmHg 52%
    19:00 +17°C° 0 mm 2 mps 755 mmHg 61%
    20:00 +15°C° 0 mm 2 mps 755 mmHg 70%
    21:00 +14°C° 0 mm 2 mps 755 mmHg 71%
    22:00 +13°C° 0 mm 2 mps 755 mmHg 72%
    23:00 +13°C° 0 mm 2 mps 755 mmHg 74%

    Tomorrow, 27 May, Sunday

    Time Temperature Precipitation Wind Pressure Humidity
    00:00 +12°C° 0 mm 2 mps 755 mmHg 74%
    01:00 +12°C° 0 mm 2 mps 754 mmHg 75%
    02:00 +12°C° 0 mm 2 mps 754 mmHg 76%
    03:00 +11°C° 0 mm 3 mps 754 mmHg 75%
    04:00 +12°C° 0 mm 3 mps 754 mmHg 75%
    05:00 +13°C° 0 mm 3 mps 753 mmHg 74%
    06:00 +16°C° 0 mm 3 mps 753 mmHg 69%
    07:00 +18°C° 0 mm 4 mps 753 mmHg 64%
    08:00 +20°C° 0 mm 4 mps 752 mmHg 59%
    09:00 +21°C° 0 mm 4 mps 752 mmHg 56%
    10:00 +22°C° 0 mm 5 mps 752 mmHg 52%
    11:00 +25°C° 0 mm 5 mps 751 mmHg 48%
    12:00 +23°C° 0 mm 4 mps 751 mmHg 49%
    13:00 +23°C° 0 mm 4 mps 751 mmHg 51%
    14:00 +24°C° 0 mm 3 mps 750 mmHg 53%
    15:00 +23°C° 0.2 mm 4 mps 750 mmHg 52%
    16:00 +22°C° 0.2 mm 4 mps 750 mmHg 52%
    17:00 +21°C° 0.2 mm 4 mps 750 mmHg 52%
    18:00 +19°C° 0 mm 3 mps 751 mmHg 52%
    19:00 +17°C° 0 mm 3 mps 751 mmHg 53%
    20:00 +14°C° 0 mm 3 mps 752 mmHg 53%
    21:00 +12°C° 0 mm 3 mps 753 mmHg 51%
    22:00 +11°C° 0 mm 3 mps 753 mmHg 49%
    23:00 +10°C° 0 mm 2 mps 754 mmHg 46%

    Day after tomorrow, 28 May, Monday

    Time Temperature Precipitation Wind Pressure Humidity
    00:00 +9°C° 0 mm 2 mps 755 mmHg 49%
    01:00 +8°C° 0 mm 2 mps 755 mmHg 52%
    02:00 +7°C° 0 mm 2 mps 756 mmHg 55%
    03:00 +7°C° 0 mm 2 mps 757 mmHg 55%
    04:00 +7°C° 0 mm 2 mps 757 mmHg 55%
    05:00 +8°C° 0 mm 2 mps 757 mmHg 55%
    06:00 +9°C° 0 mm 2 mps 758 mmHg 48%
    07:00 +12°C° 0 mm 2 mps 758 mmHg 42%
    08:00 +14°C° 0 mm 2 mps 758 mmHg 36%
    09:00 +15°C° 0 mm 2 mps 758 mmHg 34%
    10:00 +16°C° 0 mm 2 mps 758 mmHg 32%
    11:00 +17°C° 0 mm 2 mps 758 mmHg 29%
    12:00 +18°C° 0 mm 2 mps 758 mmHg 29%
    13:00 +19°C° 0 mm 2 mps 758 mmHg 29%
    14:00 +19°C° 0 mm 2 mps 757 mmHg 29%
    15:00 +19°C° 0 mm 2 mps 757 mmHg 31%
    16:00 +19°C° 0 mm 2 mps 757 mmHg 33%
    17:00 +20°C° 0 mm 1 mps 757 mmHg 35%
    18:00 +18°C° 0 mm 1 mps 757 mmHg 42%
    19:00 +15°C° 0 mm 1 mps 757 mmHg 49%
    20:00 +13°C° 0 mm 1 mps 756 mmHg 56%
    21:00 +12°C° 0 mm 1 mps 757 mmHg 57%
    22:00 +11°C° 0 mm 1 mps 757 mmHg 58%
    23:00 +10°C° 0 mm 1 mps 757 mmHg 59%

    29 May, Tuesday

    Time Temperature Precipitation Wind Pressure Humidity
    00:00 +10°C° 0 mm 1 mps 757 mmHg 61%
    01:00 +9°C° 0 mm 2 mps 757 mmHg 62%
    02:00 +8°C° 0 mm 2 mps 757 mmHg 63%
    03:00 +9°C° 0 mm 2 mps 757 mmHg 63%
    04:00 +10°C° 0 mm 2 mps 757 mmHg 62%
    05:00 +10°C° 0 mm 2 mps 756 mmHg 62%
    06:00 +13°C° 0 mm 2 mps 756 mmHg 56%
    07:00 +16°C° 0 mm 3 mps 756 mmHg 50%
    08:00 +18°C° 0 mm 3 mps 755 mmHg 44%
    09:00 +19°C° 0 mm 3 mps 755 mmHg 41%
    10:00 +21°C° 0 mm 3 mps 754 mmHg 38%
    11:00 +22°C° 0 mm 3 mps 753 mmHg 34%
    12:00 +22°C° 0 mm 3 mps 753 mmHg 34%
    13:00 +23°C° 0 mm 4 mps 752 mmHg 33%
    14:00 +25°C° 0 mm 4 mps 751 mmHg 33%
    15:00 +23°C° 0 mm 4 mps 751 mmHg 36%
    16:00 +24°C° 0 mm 3 mps 750 mmHg 39%
    17:00 +24°C° 0 mm 3 mps 749 mmHg 43%
    18:00 +21°C° 0 mm 3 mps 749 mmHg 52%
    19:00 +19°C° 0 mm 2 mps 748 mmHg 62%
    20:00 +17°C° 0 mm 2 mps 748 mmHg 71%
    21:00 +16°C° 0 mm 2 mps 747 mmHg 74%
    22:00 +16°C° 0 mm 2 mps 747 mmHg 78%
    23:00 +14°C° 0 mm 3 mps 746 mmHg 81%

    30 May, Wednesday

    Time Temperature Precipitation Wind Pressure Humidity
    00:00 +14°C° 0 mm 3 mps 746 mmHg 81%
    01:00 +13°C° 0 mm 3 mps 746 mmHg 80%
    02:00 +13°C° 0 mm 3 mps 745 mmHg 80%
    03:00 +14°C° 0 mm 3 mps 745 mmHg 77%
    04:00 +15°C° 0 mm 4 mps 744 mmHg 75%
    05:00 +17°C° 0 mm 4 mps 744 mmHg 73%
    06:00 +17°C° 0 mm 5 mps 743 mmHg 67%
    07:00 +20°C° 0 mm 6 mps 742 mmHg 61%
    08:00 +22°C° 0 mm 6 mps 742 mmHg 55%
    09:00 +22°C° 0 mm 7 mps 741 mmHg 52%
    10:00 +23°C° 0 mm 7 mps 741 mmHg 49%
    11:00 +24°C° 0 mm 8 mps 741 mmHg 46%
    12:00 +23°C° 0.1 mm 7 mps 741 mmHg 45%
    13:00 +22°C° 0.1 mm 7 mps 741 mmHg 43%
    14:00 +22°C° 0.1 mm 7 mps 741 mmHg 42%
    15:00 +21°C° 0 mm 6 mps 741 mmHg 40%
    16:00 +20°C° 0 mm 5 mps 741 mmHg 39%
    17:00 +20°C° 0 mm 5 mps 741 mmHg 37%
    18:00 +18°C° 0 mm 4 mps 741 mmHg 43%
    19:00 +16°C° 0 mm 3 mps 741 mmHg 50%
    20:00 +13°C° 0 mm 3 mps 742 mmHg 56%
    21:00 +13°C° 0 mm 2 mps 742 mmHg 59%
    22:00 +12°C° 0 mm 2 mps 742 mmHg 63%
    23:00 +10°C° 0 mm 2 mps 742 mmHg 66%

    31 May, Thursday

    Time Temperature Precipitation Wind Pressure Humidity
    00:00 +9°C° 0 mm 2 mps 743 mmHg 68%
    01:00 +9°C° 0 mm 3 mps 743 mmHg 69%
    02:00 +8°C° 0 mm 3 mps 744 mmHg 70%
    03:00 +8°C° 0 mm 3 mps 744 mmHg 67%
    04:00 +7°C° 0 mm 3 mps 744 mmHg 64%
    05:00 +6°C° 0 mm 4 mps 745 mmHg 60%
    06:00 +7°C° 0 mm 4 mps 745 mmHg 54%
    07:00 +7°C° 0 mm 4 mps 745 mmHg 47%
    08:00 +8°C° 0 mm 4 mps 746 mmHg 40%
    09:00 +10°C° 0 mm 4 mps 746 mmHg 36%
    10:00 +11°C° 0 mm 4 mps 746 mmHg 31%
    11:00 +12°C° 0 mm 4 mps 746 mmHg 27%
    12:00 +13°C° 0 mm 4 mps 746 mmHg 27%
    13:00 +13°C° 0 mm 4 mps 746 mmHg 26%
    14:00 +14°C° 0 mm 4 mps 746 mmHg 26%
    15:00 +13°C° 0 mm 4 mps 747 mmHg 28%
    16:00 +13°C° 0 mm 4 mps 747 mmHg 30%
    17:00 +13°C° 0 mm 4 mps 747 mmHg 32%
    18:00 +11°C° 0 mm 3 mps 747 mmHg 39%
    19:00 +9°C° 0 mm 3 mps 747 mmHg 47%
    20:00 +8°C° 0 mm 2 mps 748 mmHg 54%
    21:00 +7°C° 0 mm 3 mps 748 mmHg 56%
    22:00 +5°C° 0 mm 3 mps 748 mmHg 58%
    23:00 +4°C° 0 mm 3 mps 749 mmHg 59%
    Show more